Regional Weather Roundup
Issued by NWS

Home | Current Version | Previous Version | Graphics & Text | Print | Product List | Glossary On
Versions: 1 2 3 4 5 6 7 8 9 10 11 12 13 14 15 16 17 18 19 20 21 22 23 24 25 26 27 28 29 30 31 32 33 34 35 36 37 38 39 40 41 42 43 44 45 46 47 48 49 50
457
ASUS45 KBOU 050207
RWRCO

WEATHER ROUNDUP FOR COLORADO
NATIONAL WEATHER SERVICE DENVER/BOULDER CO
700 PM MST THU FEB 04 2016

NOTE: "FAIR" INDICATES FEW OR NO CLOUDS BELOW 12000 FEET WITH NO
SIGNIFICANT WEATHER AND/OR OBSTRUCTIONS TO VISIBILITY.

COZ001>005-013-030-031-050300-
...NORTHWEST COLORADO...

CITY           SKY/WX    TMP DP  RH WIND       PRES   REMARKS
CRAIG          LGT SNOW  15  12  88 CALM      30.30F FOG
HAYDEN         CLOUDY    10   7  85 CALM      30.28F
MEEKER         FLURRIES  18  15  88 CALM      30.30F
MOUNT WERNER   NOT AVBL
STEAMBOAT SPGS CLOUDY    10   7  88 CALM      30.27S
WALDEN         CLOUDY    14   7  73 S16G22    30.17S WCI  -2
$$

COZ006>008-011-050300-
...WEST CENTRAL VALLEYS...

CITY           SKY/WX    TMP DP  RH WIND       PRES   REMARKS
GRAND JUNCTION FLURRIES  16  14  92 CALM      30.41F
MONTROSE       CLOUDY    17   5  59 NE3       30.40R
EAGLE          FLURRIES  16  12  86 E5        30.32S WCI   9
RIFLE          LGT SNOW  16  12  84 CALM      30.38S FOG
DELTA          CLOUDY    21  14  72 CALM      30.41S
NUCLA          CLOUDY    19  14  79 W3        30.40S
$$

COZ017>023-064>068-050300-
...SOUTHWEST COLORADO...

CITY           SKY/WX    TMP DP  RH WIND       PRES   REMARKS
DURANGO        CLOUDY    15   5  64 E7        30.27F WCI   5
CORTEZ         CLOUDY    16  11  80 NE5       30.34R WCI   9
PAGOSA SPRINGS CLOUDY    15   8  72 CALM      30.25R
TELLURIDE      CLOUDY    11   5  76 CALM      30.24R
WOLF CREEK PAS CLOUDY     1   0  92 SW9       30.12F WCI -14
$$

COZ009-010-012-014-032>034-037-058>063-050300-
...CENTRAL COLORADO...

CITY           SKY/WX    TMP DP  RH WIND       PRES   REMARKS
ASPEN          LGT SNOW  13   9  84 NW3       30.24S FOG
BUENA VISTA    CLOUDY    19   3  51 S5        30.13F WCI  12
COPPER MTN     LGT SNOW   9   1  72 W14       30.07F WCI  -8
BERTHOUD PASS  HAZE       0 -11  60 NW23G30   30.01F VSB 1/2 WCI -24
COTTONWOOD PAS CLOUDY    19   7  58 NW6       30.08F WCI  11
GUNNISON       CLOUDY     0  -8  71 CALM      30.31F
KREMMLING      LGT SNOW   3  -4  72 CALM      30.27F
LEADVILLE      CLOUDY     9   4  80 N7        30.11F WCI  -2
MONARCH PASS   CLOUDY     1  -4  78 MISG      30.15S
SALIDA         CLOUDY    23   5  46 W16G22    30.22S WCI  10
SUNLIGHT       FLURRIES   9   5  85 CALM        N/A
WILKERSON PASS CLOUDY    12   9  85 W7        30.06F FOG     WCI   2
$$

COZ069>075-050300-
...SAN LUIS VALLEY/SANGRE DE CRISTO MOUNTAINS...

CITY           SKY/WX    TMP DP  RH WIND       PRES   REMARKS
ALAMOSA        CLOUDY     9  -1  64 NW3       30.21S
LA VETA PASS   CLOUDY     7  -2  66 MISG      30.06S
SAGUACHE       CLOUDY    14   1  57 CALM      30.21S
$$

COZ035-036-038>040-050300-
...NORTHERN COLORADO FRONT RANGE...

CITY           SKY/WX    TMP DP  RH WIND       PRES   REMARKS
DENVER INTL AP CLOUDY    20   8  60 SW3       30.13S
DMNS CITY PARK   N/A     23   8  53 E7        30.14S WCI  14
AURORA         CLOUDY    20  11  66 SW2       30.13S
FRONT RANGE AP CLOUDY    19  12  73 W3        30.14S
ERIE MUNI ARPT CLOUDY    22  13  67 CALM      30.15S
BOULDER MUN AP CLOUDY    25  10  54 CALM      30.14S
CENTENNIAL     CLOUDY    22   9  57 NE3       30.12S
BROOMFIELD     CLOUDY    25  10  54 N6        30.13S WCI  18
FORT COLLINS   CLOUDY    23  12  63 CALM      30.16R
LONGMONT       CLOUDY    24  14  65 CALM      30.17S
$$

COZ041-046-047-076>085-087-088-050300-
...PIKES PEAK/PALMER DIVIDE AND SOUTHERN FOOTHILLS...

CITY           SKY/WX    TMP DP  RH WIND       PRES   REMARKS
COLO. SPRINGS  CLOUDY    24   4  42 NE3       30.15R
A. F. ACADEMY  CLOUDY    22   8  55 SE5       30.12R WCI  16
SCHRIEVER AFB  CLOUDY    22   2  42 E2        30.15S
ELLICOTT       NOT AVBL
FALCON         CLOUDY    21   6  52 SW3       30.13S
FORT CARSON    MOCLDY    22  13  66 NW6       30.13S WCI  15
LIMON          CLOUDY    21   8  57 S3        30.16S
MONUMENT HILL  CLOUDY    21   7  53 SW8       30.11S WCI  12
TRINIDAD       CLOUDY    32   9  38 N8        30.10F WCI  25
$$

COZ042>045-048>051-090-091-050300-
...NORTHEAST COLORADO...

CITY           SKY/WX    TMP DP  RH WIND       PRES   REMARKS
GREELEY ARPT   CLOUDY    21  16  79 CALM      30.16F
AKRON          CLOUDY    25  12  58 W10       30.16R WCI  15
BURLINGTON     CLOUDY    23  10  57 SW12      30.19F WCI  12
WRAY           CLOUDY    25  14  63 SW3       30.21R
STERLING       CLOUDY    21  16  79 CALM      30.18S
HOLYOKE        CLOUDY    21  14  73 W7        30.20S WCI  13
FORT MORGAN    CLOUDY    26  11  53 E3        30.17S
$$

COZ086-089-092>099-050300-
...SOUTHEAST COLORADO...

CITY           SKY/WX    TMP DP  RH WIND       PRES   REMARKS
PUEBLO         CLOUDY    28  15  58 N7        30.16R WCI  21
LA JUNTA       CLOUDY    24  16  71 NE5       30.18S WCI  18
LAMAR          CLOUDY    26  18  71 CALM      30.19S
SPRINGFIELD      N/A     27  13  55 CALM      30.19R
$$




USA.gov is the U.S. government's official web portal to all federal, state and local government web resources and services.